Location: Oriwa
(40.7500°S, 175.3333°E)
Time: 14:10:17
(UTC+00:00)

Lacrosse 5 rocket - Pass Details

Date: 03 February 2023
Orbit: 455 x 612 km, 57.0° (Epoch: 30 March)

Event Time Altitude Azimuth Distance (km) Brightness Sun altitude
Exits shadow 13:41:14 32° 193° (SSW) 1,082 3.1 -30.6°
Drops below altitude 10° 13:44:40 10° 150° (SSE) 2,015 5.1 -30.4°
Sets 13:47:10 0° 140° (SE) 2,926 6.0 -30.2°
